Date String (YYYY-MM-DD hh:mm:ss) UTC,Instrument flags,Ambient pressure (hPa),Sample flow (lpm),Bypass flow (lpm),Sample temperature (°C),Ambient temperature (°C),ASC tube jacket temperature (°C),LED temperature (°C),Box temperature (°C),Sample RH (%),Span deviation,Mass concentration (μg/m³),Mass concentration (μg/m³),Mass concentration (μg/m³)
DateTimeUTC,F1_M11,P_M11,Q1_M11,Q2_M11,T1_M11,T2_M11,T3_M11,T4_M11,T5_M11,U1_M11,ZSPAN_M11,X2_M11,X0_M11,X1_M11
2022-01-15 09:00:00,,0836.0,5.00,0.00,21.6,21.8,00.0,30.5,23.3,10.4,0000.0,0002.83,0004.79,0002.55
2022-01-15 09:01:00,,0836.1,5.00,0.00,21.6,21.6,00.0,30.5,23.2,10.5,0000.0,0002.83,0004.72,0002.56
2022-01-15 09:02:00,,0836.0,4.99,0.00,21.5,21.3,00.0,30.5,23.1,10.5,0000.0,0002.82,0004.68,0002.54
2022-01-15 09:03:00,,0836.0,5.01,0.00,21.5,21.1,00.0,30.5,23.0,10.5,0000.0,0002.81,0004.68,0002.52
2022-01-15 09:04:00,,0836.0,5.00,0.00,21.4,21.0,00.0,30.5,22.9,10.5,0000.0,0002.80,0004.70,0002.50
2022-01-15 09:05:00,,0836.0,4.99,0.00,21.3,20.8,00.0,30.5,22.9,10.6,0000.0,0002.80,0004.75,0002.47
2022-01-15 09:06:00,,0835.9,5.00,0.00,21.3,20.7,00.0,30.4,22.8,10.6,0000.0,0002.77,0004.36,0002.45
2022-01-15 09:07:00,,0836.0,5.00,0.00,21.2,20.6,00.0,30.4,22.7,10.6,0000.0,0002.76,0003.63,0002.43
2022-01-15 09:08:00,,0835.9,4.99,0.00,21.2,20.6,00.0,30.4,22.7,10.6,0000.0,0002.76,0003.53,0002.42
2022-01-15 09:09:00,,0835.9,5.00,0.00,21.3,21.5,00.0,30.4,23.0,10.5,0000.0,0002.74,0003.46,0002.40
2022-01-15 09:10:00,,0835.9,5.01,0.00,21.5,22.3,00.0,30.4,23.3,10.4,0000.0,0002.72,0003.38,0002.38
2022-01-15 09:11:00,,0835.9,4.99,0.00,21.6,22.5,00.0,30.5,23.5,10.3,0000.0,0002.72,0003.39,0002.37
2022-01-15 09:12:00,,0836.0,5.00,0.00,21.6,22.2,00.0,30.5,23.5,10.3,0000.0,0002.71,0003.36,0002.35
2022-01-15 09:13:00,,0836.0,5.02,0.00,21.6,21.9,00.0,30.5,23.3,10.3,0000.0,0002.69,0003.33,0002.34
2022-01-15 09:14:00,,0836.0,4.99,0.00,21.6,21.6,00.0,30.5,23.2,10.4,0000.0,0002.68,0003.34,0002.34
2022-01-15 09:15:00,,0836.0,5.01,0.00,21.5,21.4,00.0,30.5,23.1,10.4,0000.0,0002.69,0003.38,0002.34
2022-01-15 09:16:00,,0836.1,5.00,0.00,21.4,21.2,00.0,30.5,23.0,10.4,0000.0,0002.69,0004.24,0002.34
2022-01-15 09:17:00,,0836.1,5.00,0.00,21.4,21.0,00.0,30.5,22.9,10.5,0000.0,0002.69,0004.62,0002.34
2022-01-15 09:18:00,,0836.1,4.99,0.00,21.3,20.8,00.0,30.5,22.8,10.5,0000.0,0002.69,0004.64,0002.36
2022-01-15 09:19:00,,0836.1,5.01,0.00,21.3,20.7,00.0,30.4,22.7,10.5,0000.0,0002.69,0004.62,0002.36
2022-01-15 09:20:00,,0836.0,4.99,0.00,21.2,20.6,00.0,30.4,22.7,10.6,0000.0,0002.73,0004.67,0002.40
2022-01-15 09:21:00,,0836.0,5.01,0.00,21.3,21.2,00.0,30.4,22.9,10.5,0000.0,0002.72,0004.67,0002.41
2022-01-15 09:22:00,,0836.0,5.01,0.00,21.4,22.1,00.0,30.4,23.3,10.4,0000.0,0002.76,0004.80,0002.43
2022-01-15 09:23:00,,0835.9,4.99,0.00,21.6,22.6,00.0,30.5,23.5,10.3,0000.0,0002.74,0004.77,0002.43
2022-01-15 09:24:00,,0835.9,5.00,0.00,21.6,22.3,00.0,30.5,23.5,10.3,0000.0,0002.75,0004.81,0002.44
2022-01-15 09:25:00,,0835.9,5.00,0.00,21.6,22.0,00.0,30.5,23.4,10.3,0000.0,0002.77,0004.84,0002.47
2022-01-15 09:26:00,,0836.0,5.00,0.00,21.6,21.7,00.0,30.5,23.3,10.3,0000.0,0002.76,0004.80,0002.48
2022-01-15 09:27:00,,0835.9,5.00,0.00,21.5,21.4,00.0,30.5,23.1,10.4,0000.0,0002.77,0003.92,0002.50
2022-01-15 09:28:00,,0835.9,5.00,0.00,21.5,21.2,00.0,30.5,23.0,10.4,0000.0,0002.78,0003.50,0002.52
2022-01-15 09:29:00,,0835.9,5.00,0.00,21.4,21.0,00.0,30.5,22.9,10.4,0000.0,0002.77,0003.44,0002.53
2022-01-15 09:30:00,,0835.9,5.00,0.00,21.3,20.9,00.0,30.5,22.9,10.4,0000.0,0002.78,0003.97,0002.54
2022-01-15 09:31:00,,0835.9,5.01,0.00,21.3,20.8,00.0,30.4,22.8,10.4,0000.0,0002.73,0005.09,0002.52
2022-01-15 09:32:00,,0835.9,4.99,0.00,21.3,20.6,00.0,30.4,22.8,10.4,0000.0,0002.73,0005.28,0002.51
2022-01-15 09:33:00,,0835.9,5.00,0.00,21.2,20.7,00.0,30.4,22.7,10.4,0000.0,0002.70,0005.54,0002.49
2022-01-15 09:34:00,,0835.9,5.00,0.00,21.3,21.4,00.0,30.4,23.0,10.3,0000.0,0002.70,0005.56,0002.48
2022-01-15 09:35:00,,0835.9,5.00,0.00,21.5,22.3,00.0,30.5,23.3,10.2,0000.0,0002.70,0005.58,0002.46
2022-01-15 09:36:00,,0835.9,5.01,0.00,21.6,22.6,00.0,30.5,23.5,10.1,0000.0,0002.71,0005.61,0002.45
2022-01-15 09:37:00,,0835.9,5.00,0.00,21.6,22.3,00.0,30.5,23.4,10.1,0000.0,0002.70,0005.67,0002.42
2022-01-15 09:38:00,,0835.9,4.99,0.00,21.6,21.9,00.0,30.5,23.3,10.1,0000.0,0002.68,0005.68,0002.39
2022-01-15 09:39:00,,0835.8,5.01,0.00,21.6,21.6,00.0,30.5,23.2,10.2,0000.0,0002.66,0005.65,0002.37
2022-01-15 09:40:00,,0835.7,5.00,0.00,21.5,21.4,00.0,30.5,23.0,10.2,0000.0,0002.65,0005.63,0002.36
2022-01-15 09:41:00,,0835.7,4.98,0.00,21.4,21.1,00.0,30.5,22.9,10.2,0000.0,0002.61,0005.31,0002.34
2022-01-15 09:42:00,,0835.7,5.00,0.00,21.3,20.9,00.0,30.4,22.7,10.3,0000.0,0002.59,0003.80,0002.33
2022-01-15 09:43:00,,0835.7,5.00,0.00,21.2,20.7,00.0,30.4,22.6,10.4,0000.0,0002.55,0003.55,0002.32
2022-01-15 09:44:00,,0835.6,5.01,0.00,21.1,20.5,00.0,30.4,22.5,10.5,0000.0,0002.51,0003.03,0002.32
2022-01-15 09:45:00,,0835.7,4.99,0.00,21.2,21.1,00.0,30.4,22.8,10.5,0000.0,0002.50,0003.02,0002.31
2022-01-15 09:46:00,,0835.7,5.00,0.00,21.4,22.1,00.0,30.4,23.2,10.4,0000.0,0002.52,0003.05,0002.32
2022-01-15 09:47:00,,0835.6,5.01,0.00,21.5,22.6,00.0,30.5,23.4,10.2,0000.0,0002.49,0002.96,0002.31
2022-01-15 09:48:00,,0835.7,5.00,0.00,21.6,22.3,00.0,30.5,23.4,10.2,0000.0,0002.49,0002.95,0002.30
2022-01-15 09:49:00,,0835.6,4.99,0.00,21.5,21.9,00.0,30.5,23.3,10.1,0000.0,0002.49,0002.95,0002.29
2022-01-15 09:50:00,,0835.7,5.00,0.00,21.5,21.7,00.0,30.5,23.2,10.1,0000.0,0002.48,0003.18,0002.27
2022-01-15 09:51:00,,0835.7,5.00,0.00,21.5,21.4,00.0,30.5,23.1,10.1,0000.0,0002.50,0003.49,0002.26
2022-01-15 09:52:00,,0835.6,5.00,0.00,21.4,21.2,00.0,30.5,23.1,10.1,0000.0,0002.51,0003.54,0002.25
2022-01-15 09:53:00,,0835.6,5.01,0.00,21.4,21.1,00.0,30.5,23.0,10.1,0000.0,0002.50,0003.52,0002.25
2022-01-15 09:54:00,,0835.6,5.00,0.00,21.4,20.9,00.0,30.4,22.9,10.1,0000.0,0002.49,0003.52,0002.24
2022-01-15 09:55:00,,0835.6,5.00,0.00,21.3,20.8,00.0,30.4,22.9,10.1,0000.0,0002.51,0003.59,0002.24
2022-01-15 09:56:00,,0835.6,4.99,0.00,21.3,20.7,00.0,30.4,22.8,10.0,0000.0,0002.48,0003.63,0002.22
2022-01-15 09:57:00,,0835.6,5.00,0.00,21.2,20.6,00.0,30.4,22.8,10.0,0000.0,0002.45,0003.59,0002.21
2022-01-15 09:58:00,,0835.6,5.01,0.00,21.2,21.0,00.0,30.4,22.9,10.1,0000.0,0002.43,0003.56,0002.21
2022-01-15 09:59:00,,0835.6,5.00,0.00,21.4,21.9,00.0,30.4,23.2,10.0,0000.0,0002.42,0003.49,0002.21
